Weather History for Provincetown, MA

Change the Weather History Date:

Thursday, January 27, 2011

  Actual Average Record
Temperature  
Mean Temperature 30 °F -  
Max Temperature 33 °F 34 °F 53 °F (2012)
Min Temperature 28 °F 24 °F 12 °F (2000)
Degree Days  
Heating Degree Days 34    
Moisture  
Dew Point 23 °F    
Average Humidity 72    
Maximum Humidity 100    
Minimum Humidity 52    
Precipitation  
Precipitation 0.08 in - - ()
Sea Level Pressure  
Sea Level Pressure 29.62 in    
Wind  
Wind Speed 26 mph (NW)    
Max Wind Speed 40 mph    
Max Gust Speed 60 mph    
Visibility 7 miles    
Events      
Averages and records for this station are not official NWS values.
T = Trace of Precipitation, MM = Missing Value Source: NWS Daily Summary

Daily Weather History Graph

Daily Weather History Graph

Search for Another Location

Airport:

Trip Planner

Search our weather history database for the weather conditions in past years. The results will help you decide how hot, cold, wet, or windy it might be!

Date:

Astronomy

Jan. 27, 2011 Rise Set
Actual Time 6:58 AM EST 4:48 PM EST
Civil Twilight 6:28 AM EST 5:18 PM EST
Nautical Twilight 5:55 AM EST 5:52 PM EST
Astronomical Twilight 5:22 AM EST 6:25 PM EST
Moon 1:25 AM EST (1/27) 11:03 AM EST (1/27)
Length of Visible Light 10h 50m
Length of Day
9h 50m
Last Quarter, 37% of the Moon is Illuminated
Jan 27
Last Quarter
Feb 2
New
Feb 11
First Quarter
Feb 18
Full
Feb 24
Last Quarter

Hourly Weather History & Observations

Time (EST) Temp. Windchill Dew Point Humidity Pressure Visibility Wind Dir Wind Speed Gust Speed Precip Events Conditions
12:15 AM 33.8 °F 20.8 °F 30.2 °F 87% 29.48 in 2.0 mi NE 26.5 mph 41.4 mph 0.01 in   Overcast
12:35 AM 33.8 °F 19.9 °F 30.2 °F 87% 29.47 in 2.5 mi NE 31.1 mph 38.0 mph 0.02 in   Overcast
12:55 AM 33.8 °F 18.6 °F 30.2 °F 87% 29.44 in 2.5 mi NE 38.0 mph 54.1 mph 0.03 in   Overcast
1:15 AM 33.8 °F 20.1 °F 30.2 °F 87% 29.45 in 2.5 mi NE 29.9 mph 50.6 mph 0.01 in   Overcast
1:35 AM 33.8 °F 20.1 °F 30.2 °F 87% 29.45 in 2.0 mi NE 29.9 mph 40.3 mph 0.02 in   Overcast
1:55 AM 33.8 °F 18.5 °F 30.2 °F 87% 29.41 in 1.0 mi NNE 39.1 mph 59.8 mph 0.02 in   Overcast
2:15 AM 33.8 °F 18.3 °F 30.2 °F 87% 29.39 in 0.5 mi NNE 40.3 mph 50.6 mph 0.01 in   Overcast
2:35 AM 33.8 °F 19.4 °F 30.2 °F 87% 29.41 in 0.5 mi NNE 33.4 mph 42.6 mph 0.02 in   Overcast
2:55 AM 33.8 °F 19.0 °F 28.4 °F 81% 29.41 in 0.5 mi NNE 35.7 mph 49.5 mph 0.02 in   Overcast
5:15 AM 32.0 °F 17.9 °F 30.2 °F 93% 29.43 in 0.8 mi North 28.8 mph 42.6 mph N/A   Overcast
5:35 AM 30.2 °F 15.2 °F 30.2 °F 100% 29.43 in 0.8 mi North 29.9 mph 43.7 mph N/A   Overcast
5:55 AM 30.2 °F 15.2 °F 30.2 °F 100% 29.43 in 0.8 mi North 29.9 mph 39.1 mph N/A   Overcast
6:15 AM 30.2 °F 16.8 °F 28.4 °F 93% 29.44 in 1.0 mi North 23.0 mph 36.8 mph N/A   Overcast
6:35 AM 30.2 °F 17.1 °F 28.4 °F 93% 29.46 in 0.5 mi North 21.9 mph 35.7 mph N/A   Overcast
6:55 AM 30.2 °F 16.2 °F 28.4 °F 93% 29.47 in 0.5 mi North 25.3 mph 36.8 mph N/A   Overcast
7:15 AM 30.2 °F 15.7 °F 28.4 °F 93% 29.49 in 0.2 mi NNW 27.6 mph 36.8 mph N/A   Overcast
7:35 AM 28.4 °F 12.3 °F 26.6 °F 93% 29.49 in 0.2 mi NNW 32.2 mph 40.3 mph N/A   Overcast
7:55 AM 28.4 °F 13.3 °F 26.6 °F 93% 29.50 in 0.2 mi NW 27.6 mph 39.1 mph N/A   Overcast
8:15 AM 28.4 °F 13.3 °F 26.6 °F 93% 29.52 in 0.8 mi NW 27.6 mph 36.8 mph N/A   Overcast
8:35 AM 28.4 °F 13.0 °F 24.8 °F 86% 29.52 in 1.5 mi NW 28.8 mph 35.7 mph N/A   Overcast
8:55 AM 28.4 °F 13.5 °F 26.6 °F 93% 29.54 in 3.0 mi NNW 26.5 mph 35.7 mph N/A   Overcast
9:15 AM 30.2 °F 15.7 °F 26.6 °F 86% 29.54 in 2.5 mi NNW 27.6 mph 36.8 mph N/A   Overcast
9:35 AM 30.2 °F 15.9 °F 24.8 °F 80% 29.56 in 7.0 mi NNW 26.5 mph 40.3 mph N/A   Overcast
9:55 AM 30.2 °F 15.7 °F 24.8 °F 80% 29.56 in 3.0 mi NW 27.6 mph 39.1 mph N/A   Overcast
10:15 AM 30.2 °F 16.2 °F 24.8 °F 80% 29.58 in 10.0 mi NW 25.3 mph 36.8 mph N/A   Overcast
10:35 AM 30.2 °F 16.8 °F 24.8 °F 80% 29.59 in 10.0 mi WNW 23.0 mph 31.1 mph N/A   Overcast
10:55 AM 30.2 °F 16.5 °F 26.6 °F 86% 29.59 in 10.0 mi WNW 24.2 mph 29.9 mph N/A   Overcast
11:35 AM 32.0 °F 18.9 °F 24.8 °F 75% 29.59 in 10.0 mi WNW 24.2 mph 28.8 mph N/A   Overcast
11:55 AM 32.0 °F 19.5 °F 24.8 °F 75% 29.59 in 10.0 mi WNW 21.9 mph 28.8 mph N/A   Overcast
12:15 PM 32.0 °F 19.5 °F 24.8 °F 75% 29.58 in 10.0 mi WNW 21.9 mph 29.9 mph 0.01 in   Scattered Clouds
12:35 PM 33.8 °F 21.3 °F 23.0 °F 65% 29.58 in 10.0 mi WNW 24.2 mph 28.8 mph 0.01 in   Clear
12:55 PM 33.8 °F 22.2 °F 21.2 °F 60% 29.59 in 10.0 mi WNW 20.7 mph 31.1 mph 0.01 in   Clear
1:15 PM 33.8 °F 21.9 °F 21.2 °F 60% 29.60 in 10.0 mi WNW 21.9 mph 27.6 mph N/A   Clear
1:35 PM 33.8 °F 22.5 °F 21.2 °F 60% 29.61 in 10.0 mi WNW 19.6 mph 27.6 mph N/A   Clear
1:55 PM 33.8 °F 22.8 °F 21.2 °F 60% 29.62 in 10.0 mi WNW 18.4 mph 27.6 mph N/A   Partly Cloudy
2:15 PM 33.8 °F 21.9 °F 21.2 °F 60% 29.64 in 10.0 mi WNW 21.9 mph 25.3 mph N/A   Partly Cloudy
2:35 PM 33.8 °F 22.5 °F 21.2 °F 60% 29.65 in 10.0 mi WNW 19.6 mph 27.6 mph N/A   Mostly Cloudy
2:55 PM 33.8 °F 22.5 °F 19.4 °F 56% 29.66 in 10.0 mi WNW 19.6 mph 27.6 mph N/A   Scattered Clouds
3:15 PM 33.8 °F 23.5 °F 19.4 °F 56% 29.67 in 10.0 mi WNW 16.1 mph 25.3 mph N/A   Partly Cloudy
3:55 PM 33.8 °F 22.8 °F 19.4 °F 56% 29.67 in 10.0 mi WNW 18.4 mph 23.0 mph N/A   Clear
4:15 PM 33.8 °F 22.5 °F 19.4 °F 56% 29.68 in 10.0 mi WNW 19.6 mph 25.3 mph N/A   Clear
4:35 PM 33.8 °F 23.2 °F 17.6 °F 52% 29.69 in 10.0 mi WNW 17.3 mph 25.3 mph N/A   Clear
4:55 PM 33.8 °F 22.2 °F 19.4 °F 56% 29.70 in 10.0 mi WNW 20.7 mph 25.3 mph N/A   Clear
5:15 PM 33.8 °F 23.2 °F 19.4 °F 56% 29.71 in 10.0 mi WNW 17.3 mph 23.0 mph N/A   Clear
5:35 PM 33.8 °F 22.2 °F 17.6 °F 52% 29.72 in 10.0 mi WNW 20.7 mph - N/A   Clear
5:55 PM 33.8 °F 23.9 °F 17.6 °F 52% 29.73 in 10.0 mi WNW 15.0 mph 24.2 mph N/A   Clear
6:15 PM 32.0 °F 20.5 °F 17.6 °F 55% 29.73 in 10.0 mi WNW 18.4 mph 23.0 mph N/A   Clear
6:35 PM 33.8 °F 22.8 °F 17.6 °F 52% 29.74 in 10.0 mi WNW 18.4 mph - N/A   Clear
6:55 PM 32.0 °F 20.8 °F 17.6 °F 55% 29.74 in 10.0 mi West 17.3 mph 21.9 mph N/A   Clear
7:15 PM 32.0 °F 21.6 °F 17.6 °F 55% 29.75 in 10.0 mi WNW 15.0 mph 20.7 mph N/A   Clear
7:35 PM 32.0 °F 22.1 °F 19.4 °F 60% 29.76 in 10.0 mi WNW 13.8 mph - N/A   Clear
7:55 PM 32.0 °F 21.6 °F 17.6 °F 55% 29.77 in 10.0 mi WNW 15.0 mph 23.0 mph N/A   Clear
8:15 PM 32.0 °F 21.6 °F 17.6 °F 55% 29.77 in 10.0 mi WNW 15.0 mph - N/A   Clear
8:35 PM 32.0 °F 21.2 °F 17.6 °F 55% 29.78 in 10.0 mi WNW 16.1 mph - N/A   Clear
8:55 PM 32.0 °F 22.5 °F 19.4 °F 60% 29.77 in 10.0 mi WNW 12.7 mph - N/A   Scattered Clouds
9:15 PM 32.0 °F 21.6 °F 17.6 °F 55% 29.78 in 10.0 mi WNW 15.0 mph 19.6 mph N/A   Partly Cloudy
9:35 PM 32.0 °F 21.6 °F 17.6 °F 55% 29.78 in 10.0 mi WNW 15.0 mph 21.9 mph N/A   Scattered Clouds
9:55 PM 32.0 °F 22.1 °F 17.6 °F 55% 29.79 in 10.0 mi WNW 13.8 mph 23.0 mph N/A   Mostly Cloudy
10:15 PM 30.2 °F 19.8 °F 21.2 °F 69% 29.80 in 10.0 mi West 13.8 mph 19.6 mph N/A   Mostly Cloudy
10:35 PM 30.2 °F 19.8 °F 19.4 °F 64% 29.81 in 10.0 mi West 13.8 mph - N/A   Mostly Cloudy
10:55 PM 30.2 °F 18.9 °F 19.4 °F 64% 29.82 in 10.0 mi West 16.1 mph - N/A   Partly Cloudy
11:15 PM 30.2 °F 19.8 °F 19.4 °F 64% 29.82 in 10.0 mi West 13.8 mph 19.6 mph N/A   Clear
11:35 PM 30.2 °F 18.9 °F 19.4 °F 64% 29.82 in 10.0 mi West 16.1 mph 20.7 mph N/A   Clear
11:55 PM 30.2 °F 19.8 °F 19.4 °F 64% 29.82 in 10.0 mi West 13.8 mph - N/A   Clear